#timestamp,LO_Frequency,Hit,StdDev 
1515315615.3,286047000.9,N
1515315635.1,286046999.9,N
1515315655.9,286047001.0,N
1515315675.7,286046999.5,N
1515315695.6,286046996.6,Y
1515315715.4,286046997.8,P
1515315735.2,286046998.8,N
1515315755.1,286046998.8,N
1515315756.0,286046998.8,N
1515315775.8,286046998.9,N
1515315795.6,286047000.4,N
1515315815.5,286047000.5,N
1515315835.3,286047001.6,N
1515315855.2,286047002.4,N
1515315875.9,286047004.0,N
1515315895.7,286047005.9,Y
1515315915.6,286047003.8,P
1515315935.4,286047004.4,N
1515315955.2,286047003.6,N
1515315975.1,286047004.1,N
1515315976.0,286047004.1,N
1515315995.8,286047003.9,N
1515316015.7,286047003.2,N
1515316035.5,286047003.3,N
1515316055.3,286047003.1,N
1515316075.2,286047003.0,N
1515316095.0,286047004.8,Y
1515316095.9,286047004.8,P
1515316115.8,286047000.4,N
1515316135.6,286047001.2,N
1515316155.4,286047001.1,N
1515316175.3,286047000.6,N
1515316195.1,286046999.8,N
1515316196.0,286046999.8,N
1515316215.8,286046998.6,N
1515316235.7,286046998.9,N
1515316255.5,286046998.7,N
1515316275.4,286046998.3,N
1515316295.2,286046999.4,N
1515316315.0,286046999.6,N
1515316315.9,286046999.6,N
1515316335.8,286046998.2,N
1515316355.6,286047000.5,N
1515316375.4,286047001.2,N
1515316395.3,286047000.7,N
1515316415.1,286047000.2,N
1515316435.9,286047000.5,N
1515316455.7,286047000.4,N
1515316475.5,286047000.2,N
1515316495.4,286046999.8,N
1515316515.2,286047000.2,N
1515316535.1,286047000.9,N
1515316536.0,286047000.9,N
1515316555.8,286047002.7,N
1515316575.6,286047002.4,N
1515316595.5,286047000.5,N
1515316615.3,286047001.2,N
1515316635.1,286047000.3,N
1515316655.9,286046998.3,N
1515316675.7,286046997.1,N
1515316695.6,286046997.3,N
1515316715.4,286046997.8,N
1515316735.2,286046995.4,Y
1515316755.1,286046995.4,P
1515316756.0,286046995.4,N
1515316775.8,286046995.4,N
1515316795.7,286046997.4,N
1515316815.5,286046997.0,N
1515316835.3,286046999.5,N
1515316855.2,286046996.9,N
1515316875.0,286046996.7,N
1515316875.9,286046996.7,N
1515316895.7,286046996.7,N
1515316915.6,286046998.9,N
1515316935.4,286046998.8,N
1515316955.3,286046999.4,N
1515316975.1,286046997.0,N
1515316976.0,286046997.0,N
1515316995.8,286046997.8,N
1515317015.7,286046995.0,Y
1515317035.5,286046996.9,P
1515317055.4,286046994.9,P
1515317075.2,286046994.9,P
1515317095.0,286046993.6,Y
1515317095.9,286046993.6,P
1515317115.8,286046998.1,N
1515317135.6,286046998.8,N
1515317155.4,286046996.8,N
1515317175.3,286046998.7,N
1515317195.1,286046999.0,N
1515317215.9,286046999.2,N
1515317235.7,286046997.4,N
1515317255.5,286046997.1,N
1515317275.4,286046997.2,N
1515317295.2,286046997.7,N
1515317315.0,286046995.6,N
1515317316.0,286046995.6,N
1515317335.8,286046997.6,N
1515317355.6,286046995.1,Y
1515317375.5,286046998.6,P
1515317395.3,286046998.6,N
1515317415.1,286047000.8,N
1515317435.9,286046998.1,N
1515317455.7,286046999.0,N
1515317475.6,286046998.8,N
1515317495.4,286046998.3,N
1515317515.2,286046996.9,Y
1515317535.1,286046997.1,P
1515317536.0,286046997.1,P
1515317555.8,286046997.5,P
1515317575.7,286046995.5,Y
1515317595.5,286046997.8,P
1515317615.3,286046994.9,P
1515317635.2,286046995.1,P
1515317655.0,286046998.0,N
1515317655.9,286046998.0,N
1515317675.8,286046995.9,Y
1515317725.6,286046998.1,E
1515317735.5,286047000.7,N
1515317755.4,286047002.4,P
1515317775.2,286047002.2,N
1515317795.1,286047002.5,Y
1515317796.0,286047002.5,P
1515317815.8,286047001.1,N
1515317835.6,286047000.7,N
1515317855.5,286046998.8,N
1515317875.3,286046997.0,N
1515317895.1,286046997.1,N
1515317915.9,286046996.8,N
1515317935.7,286046999.1,N
1515317955.6,286046996.7,N
1515317975.4,286046998.8,N
1515317995.2,286046999.4,N
1515318015.1,286046999.2,N
1515318016.0,286046999.2,N
1515318035.8,286046998.9,N
1515318055.7,286046998.3,N
1515318075.5,286046998.8,N
1515318095.3,286046996.5,N
1515318115.2,286046997.4,N
1515318135.0,286046997.3,N
1515318135.9,286046997.3,N
1515318155.8,286046997.4,N
1515318175.6,286046997.7,N
1515318195.4,286046997.1,N
1515318215.3,286046994.9,Y
1515318235.1,286046997.2,P
1515318285.9,286046999.0,E
1515318295.8,286046998.8,N
1515318315.6,286047001.0,P
1515318335.5,286046998.6,N
1515318355.3,286046996.5,Y
1515318375.1,286046999.1,P
1515318395.9,286046997.8,P
1515318415.7,286046995.9,P
1515318435.6,286046996.1,N
1515318455.4,286046996.3,N
1515318475.2,286046996.3,N
1515318495.1,286046993.8,Y
1515318496.0,286046993.8,P
1515318515.8,286046997.4,N
1515318535.7,286046996.6,N
1515318555.5,286046999.1,N
1515318575.3,286046999.2,N
1515318595.2,286046997.2,N
1515318615.9,286046996.5,N
1515318635.7,286046998.7,N
1515318655.6,286046997.2,N
1515318675.4,286046995.6,N
1515318695.3,286046995.3,Y
1515318715.1,286046999.1,P
1515318716.0,286046999.1,N
1515318735.8,286046999.6,N
1515318755.7,286046996.9,Y
1515318775.5,286046998.2,P
1515318795.3,286046999.9,N
1515318815.2,286047000.5,N
1515318835.0,286047000.5,N
1515318835.9,286047000.5,N
1515318855.8,286047000.5,N
1515318875.6,286047001.0,N
1515318895.4,286047000.6,N
1515318915.3,286047000.5,N
1515318935.1,286047000.9,N
1515318955.9,286047000.5,N
1515318975.7,286046998.8,N
1515318995.5,286046999.3,N
1515319015.4,286046998.3,N
1515319035.2,286046998.6,N
1515319055.0,286046998.7,N
1515319055.9,286046998.7,N
1515319075.8,286046999.4,N
1515319095.6,286046998.1,N
1515319115.5,286046998.8,N
1515319135.3,286046999.3,N
1515319155.1,286046999.3,N
1515319175.9,286046997.1,Y
1515319195.7,286046999.5,P
